COSMOS 2251 DEB

Satellite information

Favourite Embed

Satellite Type and Status

DEBRISIN ORBIT

Key statistics

Satellite COSMOS 2251 DEB at a glance.

Uptime

11822

Days in orbit

Revolutions

≈ 14.5

Per day

Orbit

LEO

Low Earth Orbit

Inclination

74.0

Latest

Satellite identification and parameters

Extended collection of information and parameters for COSMOS 2251 DEB.

Object identification

Identified? True

Debris? True

Object name: COSMOS 2251 DEB

International designator: 1993-036VN

Object number (NORAD): 34576

Object ID (CCSDS): 34576

Country: COMMONWEALTH OF INDEPENDENT STATES (CIS)

Current information (Y/N): Y

RCS size: SMALL

Orbital parameters

Period: 98.971 minutes

Inclination: 74.035 deg

SMA: 7087.573 km

Apoapsis: 714.479 km

Periapsis: 704.398 km

RAAN: 225.2348 deg

Eccentricy: 0.00071116

Argument of periapsis: 354.3197 deg

Mean anomaly: 35.1013 deg

Mean motion: 14.54977909 rev/day

Mean motion (dot): 0.00004691 rev/day2

B* drag term: 0.0010951587 1/REarth

Two-line elements (TLE)

Creation date: Oct. 28, 2025, 2:18 a.m.

Reference frame: TEME

Reference center: EARTH

Epoch: Oct. 27, 2025, 6:38 p.m. UTC

TLE line 0: 0 COSMOS 2251 DEB

TLE line 1: 1 34576U 93036VN 25300.77682838 .00004691 00000-0 10952-2 0 9994

TLE line 2: 2 34576 74.0350 225.2348 0007112 354.3197 35.1013 14.54977909877982

Live tracking on map

Real-time ground track for satellite COSMOS 2251 DEB.

In-orbit conjunctions

A list of the most updated potential collisions computed for object COSMOS 2251 DEB.

Target Orbit TCA Probability of collision Miss distance Type
FENGYUN 1C DEB SSO 2025-10-23 22:55:24 0.0001299086 242.0 (m) DEBRIS
CZ-4C DEB SSO 2025-09-20 05:02:37 0.0001279905 520.0 (m) DEBRIS

Associated space launch

Military communications satellite. Destroyed in a collision with Iridium 33.

COSMOS 2251 DEB was lifted into orbit during the mission ‘Kosmos-3M | Strela-2M 51’, on board a Kosmos-3M space rocket.

The launch took place on June 16, 1993, 4:17 a.m. from 132/1 (132L).

For more information about the launch, click the button.

Launch to space Kosmos-3M | Strela-2M 51
Kosmos-3M | Strela-2M 51

Agency: N/A

Status: Launch Successful

Launch date: June 16, 1993, 4:17 a.m. UTC

Rocket: Kosmos-3M

Launch pad: 132/1 (132L)

Location: Plesetsk Cosmodrome, Russian Federation

...

Latest news about this satellite

There are no fresh news available about this satellite. Check back as we update our databases every day.


Newsletter sign-up

Weekly statistics, charts and insights to help you stay on top of the space industry.